Location: Table Mountain
(47.2500°N, 120.5778°W)
Time: 15:28:37
(UTC-07:00)

Vanguard 2 Rocket - All Passes

Search period start: 22 July 2018 00:00
Search period end: 01 August 2018 00:00
Orbit: 554 x 3327 km, 32.9° (Epoch: 22 July)

Date Brightness Start Highest point End Pass type
(mag) Time Alt. Az. Time Alt. Az. Time Alt. Az.
22 Jul - 03:25:04 10° SSW 03:29:41 23° SSE 03:36:22 10° ESE visible
22 Jul - 05:35:39 10° WSW 05:42:21 32° S 05:53:04 10° ESE daylight
22 Jul - 07:48:13 10° WSW 07:56:19 26° SSW 08:08:03 10° SSE daylight
22 Jul - 10:06:33 10° SW 10:10:53 12° SW 10:15:42 10° SSW daylight
23 Jul - 02:27:33 10° S 02:30:43 16° SSE 02:34:43 10° ESE visible
23 Jul - 04:37:08 10° SW 04:42:47 29° S 04:51:36 10° ESE visible
23 Jul - 06:48:57 10° WSW 06:56:12 28° SSW 07:07:10 10° SE daylight
23 Jul - 09:04:07 10° WSW 09:10:30 15° SSW 09:18:23 10° S daylight
24 Jul - 03:38:52 10° SW 03:43:30 24° SSE 03:50:16 10° ESE visible
24 Jul - 05:50:01 10° WSW 05:56:20 28° S 06:06:04 10° SE daylight
24 Jul - 08:03:35 10° WSW 08:10:16 18° SSW 08:19:08 10° SSE daylight
25 Jul - 02:40:56 10° SSW 02:44:27 18° SSE 02:49:05 10° ESE visible
25 Jul - 04:51:23 10° SW 04:56:46 27° S 05:04:57 10° SE visible
25 Jul - 07:03:54 10° WSW 07:10:12 21° SSW 07:19:02 10° SSE daylight
26 Jul - 01:43:43 10° S 01:45:33 12° SSE 01:47:38 10° SE visible
26 Jul - 03:52:56 10° SW 03:57:26 24° S 04:03:56 10° SE visible
26 Jul - 06:04:43 10° WSW 06:10:23 22° S 06:18:32 10° SSE daylight
26 Jul - 08:21:11 10° SW 08:24:14 11° SSW 08:27:39 10° SSW daylight
27 Jul - 02:54:44 10° SSW 02:58:18 19° SSE 03:03:04 10° SE visible
27 Jul - 05:05:53 10° SW 05:10:48 22° S 05:17:53 10° SE daylight
27 Jul - 07:19:57 10° SW 07:24:15 14° SSW 07:29:31 10° S daylight
28 Jul - 01:56:51 10° SSW 01:59:21 14° SSE 02:02:17 10° SE visible
28 Jul - 04:07:16 10° SW 04:11:26 21° S 04:17:15 10° SE visible
28 Jul - 06:20:07 10° SW 06:24:27 15° SSW 06:30:04 10° SSE daylight
29 Jul - 03:08:52 10° SW 03:12:17 19° S 03:16:44 10° SE visible
29 Jul - 05:20:52 10° SW 05:24:53 16° S 05:30:08 10° SSE daylight
30 Jul - 02:10:38 10° SSW 02:13:16 15° S 02:16:22 10° SE visible
30 Jul - 04:22:00 10° SW 04:25:30 17° S 04:30:03 10° SSE visible
31 Jul - 01:12:46 10° S 01:14:19 12° SSE 01:15:58 10° SE night (unlit)
31 Jul - 03:23:21 10° SW 03:26:18 16° S 03:29:58 10° SSE visible
31 Jul - 05:37:55 10° SSW 05:38:59 10° SSW 05:40:07 10° S daylight
